Location: ??
(34.7707°N, 135.6540°E)
Time: 22:20:36
(UTC+00:00)

PSLV R/B - Pass Details

Date: 09 April 2020
Orbit: 594 x 629 km, 97.9° (Epoch: 23 May)

Event Time Altitude Azimuth Distance (km) Brightness Sun altitude
Rises 18:42:17 0° 13° (NNE) 2,920 7.6 -22.2°
Reaches altitude 10° 18:44:30 10° 14° (NNE) 2,011 6.7 -21.8°
Maximum altitude 18:48:53 83° 102° (ESE) 638 3.6 -21.0°
Enters shadow 18:50:45 34° 187° (S) 1,032 4.4 -20.6°
